Location: San Gennaro Vesuviano
(40.8833°N, 14.5333°E)
Time: 21:18:45
(UTC+00:00)

Cosmos-2242 - Pass Details

Date: 22 April 2021
Orbit: 589 x 618 km, 82.5° (Epoch: 10 May)

Event Time Altitude Azimuth Distance (km) Brightness Sun altitude
Exits shadow 19:35:48 33° 168° (SSE) 1,018 3.8 -18.8°
Maximum altitude 19:37:37 68° 96° (E) 653 2.9 -19.1°
Drops below altitude 10° 19:41:54 10° 13° (NNE) 1,951 5.9 -19.7°
Sets 19:44:07 0° 11° (N) 2,854 6.8 -20.0°
